Warrenton, OR

1:45 AM PDT on August 28, 2016 (GMT -0700)
Astoria Regional

Weather History for KAST - May, 2013

Change the Weather History Date:

Sunday, May 26, 2013

  Actual Average Record
Temperature  
Mean Temperature 56 °F 54 °F  
Max Temperature 61 °F 62 °F 81 °F (1947)
Min Temperature 50 °F 47 °F 37 °F (1973)
Degree Days  
Heating Degree Days 9 11  
Month to date heating degree days 283 322  
Since 1 July heating degree days 4717 4731  
Cooling Degree Days 0 0  
Month to date cooling degree days 1 0  
Year to date cooling degree days 1 0  
Growing Degree Days 6 (Base 50)    
Moisture  
Dew Point 50 °F    
Average Humidity 84    
Maximum Humidity 100    
Minimum Humidity 67    
Precipitation  
Precipitation 0.10 in 0.10 in 1.17 in (1895)
Month to date precipitation 4.37 2.82  
Year to date precipitation 30.49 32.86  
Snow  
Snow 0.00 in - - ()
Month to date snowfall 0.0  
Snow Depth 0.00 in    
Sea Level Pressure  
Sea Level Pressure 29.98 in    
Wind  
Wind Speed 11 mph (South)    
Max Wind Speed 22 mph    
Max Gust Speed 32 mph    
Visibility 7 miles    
Events Rain    
T = Trace of Precipitation, MM = Missing Value Source: NWS Daily Summary

Daily Weather History Graph

Daily Weather History Graph

Search for Another Location

Airport or City:

Trip Planner

Search our weather history database for the weather conditions in past years. The results will help you decide how hot, cold, wet, or windy it might be!

Date:

Astronomy

May. 26, 2013 Rise Set
Actual Time 5:31 AM PDT 8:54 PM PDT
Civil Twilight 4:54 AM PDT 9:31 PM PDT
Nautical Twilight 4:06 AM PDT 10:19 PM PDT
Astronomical Twilight 3:05 AM PDT 11:21 PM PDT
Moon 10:44 PM PDT (5/26) 7:08 AM PDT (5/26)
Length of Visible Light 16h 36m
Length of Day
15h 22m
Waning Gibbous, 96% of the Moon is Illuminated
May 26
Waning Gibbous
May 31
Last Quarter
Jun 8
New
Jun 16
First Quarter
Jun 23
Full

Hourly Weather History & Observations

Time (PDT) Temp. Dew Point Humidity Pressure Visibility Wind Dir Wind Speed Gust Speed Precip Events Conditions
12:55 AM 51.1 °F 50.0 °F 96% 29.95 in 8.0 mi Calm Calm - 0.01 in   Overcast
1:55 AM 51.1 °F 50.0 °F 96% 29.94 in 7.0 mi Calm Calm - 0.00 in Rain Light Rain
2:55 AM 51.1 °F 50.0 °F 96% 29.94 in 10.0 mi ESE 3.5 mph - 0.00 in   Overcast
3:55 AM 51.1 °F 50.0 °F 96% 29.94 in 10.0 mi Calm Calm - N/A   Overcast
4:08 AM 51.8 °F 50.0 °F 94% 29.93 in 6.0 mi Calm Calm - N/A   Overcast
4:24 AM 51.8 °F 50.0 °F 94% 29.93 in 4.0 mi Calm Calm - 0.00 in Rain Light Rain
4:55 AM 51.1 °F 51.1 °F 100% 29.94 in 2.5 mi Calm Calm - 0.01 in Rain Light Rain
5:07 AM 51.8 °F 51.8 °F 100% 29.94 in 3.0 mi Calm Calm - 0.01 in Rain Light Rain
5:13 AM 51.8 °F 51.8 °F 100% 29.93 in 2.5 mi Calm Calm - 0.01 in Rain Light Rain
5:28 AM 51.8 °F 51.8 °F 100% 29.94 in 2.5 mi Calm Calm - 0.01 in Rain Light Rain
5:55 AM 52.0 °F 51.1 °F 97% 29.94 in 2.0 mi Calm Calm - 0.03 in Rain Light Rain
6:06 AM 51.8 °F 51.8 °F 100% 29.94 in 2.5 mi SSE 3.5 mph - 0.01 in Rain Light Rain
6:23 AM 51.8 °F 51.8 °F 100% 29.95 in 1.5 mi ESE 4.6 mph - 0.02 in Rain Light Rain
6:27 AM 51.8 °F 51.8 °F 100% 29.95 in 2.0 mi SE 4.6 mph - 0.02 in Rain Light Rain
6:35 AM 51.8 °F 51.8 °F 100% 29.95 in 7.0 mi SE 4.6 mph - 0.02 in   Overcast
6:55 AM 52.0 °F 51.1 °F 97% 29.95 in 7.0 mi SE 3.5 mph - 0.02 in   Overcast
7:06 AM 51.8 °F 51.8 °F 100% 29.95 in 1.5 mi SSE 3.5 mph - 0.00 in Rain Light Rain
7:13 AM 51.8 °F 51.8 °F 100% 29.95 in 1.0 mi South 4.6 mph - 0.01 in Rain Light Rain
7:25 AM 51.8 °F 51.8 °F 100% 29.95 in 1.0 mi SSW 8.1 mph - 0.02 in Rain Light Rain
7:30 AM 51.8 °F 51.8 °F 100% 29.95 in 2.0 mi SSW 6.9 mph - 0.02 in   Overcast
7:52 AM 53.6 °F 51.8 °F 94% 29.96 in 1.2 mi SSW 11.5 mph - 0.03 in Rain Light Rain
7:55 AM 52.0 °F 51.1 °F 97% 29.96 in 1.5 mi SSW 9.2 mph - 0.04 in Rain Light Rain
8:02 AM 53.6 °F 51.8 °F 94% 29.96 in 3.0 mi SSW 10.4 mph - 0.00 in Rain Light Rain
8:20 AM 53.6 °F 51.8 °F 94% 29.97 in 9.0 mi SSW 11.5 mph 20.7 mph 0.00 in   Overcast
8:30 AM 53.6 °F 51.8 °F 94% 29.97 in 9.0 mi SSW 9.2 mph - 0.00 in   Overcast
8:50 AM 53.6 °F 51.8 °F 94% 29.97 in 10.0 mi SSW 11.5 mph - 0.00 in   Overcast
8:55 AM 54.0 °F 51.1 °F 90% 29.97 in 10.0 mi SSW 12.7 mph 18.4 mph 0.00 in   Overcast
9:55 AM 55.0 °F 51.1 °F 86% 29.98 in 10.0 mi SW 12.7 mph 23.0 mph N/A   Overcast
10:19 AM 55.4 °F 51.8 °F 88% 29.98 in 10.0 mi SSW 9.2 mph - N/A   Overcast
10:55 AM 57.0 °F 51.1 °F 81% 29.99 in 10.0 mi South 9.2 mph 19.6 mph 0.00 in   Overcast
11:04 AM 55.4 °F 50.0 °F 82% 29.99 in 10.0 mi SSW 10.4 mph 18.4 mph N/A   Overcast
11:55 AM 57.9 °F 50.0 °F 75% 29.99 in 10.0 mi SSW 13.8 mph 23.0 mph N/A   Overcast
12:55 PM 57.9 °F 48.9 °F 72% 30.00 in 10.0 mi SSW 13.8 mph 26.5 mph N/A   Overcast
1:55 PM 57.0 °F 50.0 °F 77% 30.01 in 10.0 mi SSW 19.6 mph 26.5 mph 0.00 in   Overcast
2:55 PM 59.0 °F 48.9 °F 69% 30.02 in 10.0 mi SSW 16.1 mph 31.1 mph 0.00 in   Mostly Cloudy
3:55 PM 60.1 °F 50.0 °F 69% 30.02 in 10.0 mi South 13.8 mph 27.6 mph N/A   Mostly Cloudy
4:24 PM 57.2 °F 50.0 °F 77% 30.03 in 10.0 mi SW 16.1 mph 27.6 mph N/A   Overcast
4:55 PM 55.9 °F 50.0 °F 80% 30.03 in 9.0 mi SSW 10.4 mph 24.2 mph N/A   Overcast
5:55 PM 55.9 °F 50.0 °F 80% 30.03 in 10.0 mi SW 10.4 mph 23.0 mph N/A   Overcast
6:33 PM 55.4 °F 50.0 °F 82% 30.01 in 10.0 mi South 10.4 mph 20.7 mph N/A   Overcast
6:43 PM 55.4 °F 50.0 °F 82% 30.01 in 10.0 mi SSW 10.4 mph 21.9 mph N/A   Overcast
6:55 PM 55.0 °F 48.9 °F 80% 30.01 in 10.0 mi SSW 17.3 mph 25.3 mph N/A   Mostly Cloudy
7:09 PM 55.4 °F 48.2 °F 77% 30.02 in 10.0 mi SSW 15.0 mph 21.9 mph N/A   Mostly Cloudy
7:34 PM 55.4 °F 48.2 °F 77% 30.02 in 10.0 mi SSW 12.7 mph 19.6 mph N/A   Overcast
7:55 PM 54.0 °F 48.9 °F 83% 30.01 in 10.0 mi SSW 11.5 mph - N/A   Mostly Cloudy
8:48 PM 53.6 °F 48.2 °F 82% 30.01 in 10.0 mi SSW 9.2 mph - N/A   Overcast
8:55 PM 53.1 °F 48.0 °F 83% 30.01 in 10.0 mi South 9.2 mph - N/A   Overcast
9:55 PM 53.1 °F 46.9 °F 80% 30.00 in 10.0 mi South 6.9 mph - N/A   Mostly Cloudy
10:15 PM 53.6 °F 46.4 °F 77% 29.99 in 10.0 mi South 3.5 mph - N/A   Overcast
10:55 PM 53.1 °F 46.9 °F 80% 29.99 in 10.0 mi South 3.5 mph - N/A   Overcast
11:17 PM 53.6 °F 46.4 °F 77% 29.97 in 10.0 mi SSE 3.5 mph - N/A   Overcast
11:55 PM 53.1 °F 48.0 °F 83% 29.96 in 10.0 mi Calm Calm - N/A   Overcast